rPlanet.dev - Failed Crafting Attempts

Use this site to make sure the recipe you are thinking about wasn't tried before!

Fast & Easy land upgrade utility by rplanet.dev out now! Go to craft.rplanet.dev/lands

Burn Statistics
AETHER Burned since last invention: 1,254,310,000 AETHER (6.26% of total Burn!)
AETHER Burned since begin phase 3: 20,042,640,000 AETHER
Timestamp for latest invention does not update automatically.

Tip: You can paste recipes into the first slot! Try pasting earth,earth,water,water. This function is case insensitive.

Enter the four elements you plan to to combine and the website will tell you if it was tried before!
Filter the table below for certain elements.

If you like this tool please consider donating some WAX to ibotyourgame. Thank you very much! :)

Date / Time Crafting Attempts AETHER Costs Recipe Last Try
28th July 2021 19:32:34 1 7,600,000 SEED, TREE, WIRE, WIRE psueg.wam
28th July 2021 19:32:33 1 490,000 EARTH, EARTH, EARTH, SAND chfuc.wam
28th July 2021 19:31:55 1 5,590,000 SEED, TREE, TREE, WIRE psueg.wam
28th July 2021 19:31:40 1 670,000 FIRE, SAND, STONE, STONE chfuc.wam
28th July 2021 19:31:05 1 1,060,000 COAL, COAL, PRESS, SAND chfuc.wam
28th July 2021 19:30:33 1 790,000 COAL, EARTH, HEAT, SAND chfuc.wam
28th July 2021 19:28:57 1 610,000 EARTH, HEAT, SAND, STONE chfuc.wam
28th July 2021 19:27:51 2 520,000 EARTH, FIRE, PRESS, SAND chfuc.wam
28th July 2021 19:26:56 1 610,000 FIRE, PRESS, SAND, STONE chfuc.wam
28th July 2021 19:13:24 1 5,410,000 CANABIS, SUN, SUN, WIRE helphycrypto
28th July 2021 19:12:41 1 1,540,000 FLOOD, PLANT, SEED, WATER eomqw.wam
28th July 2021 19:04:45 1 1,540,000 FLOOD, PLANT, SUN, SUN eomqw.wam
28th July 2021 19:00:49 1 1,810,000 PLANT, RIVER, SUN, WATER eomqw.wam
28th July 2021 18:55:43 1 2,410,000 PLANT, RIVER, SUN, SUN eomqw.wam
28th July 2021 18:41:18 1 6,070,000 CANABIS, PEAT, SUN, WIRE yhgb4.wam
28th July 2021 18:33:27 1 3,190,000 EARTH, ELECTRC, ELECTRC, GRPHITE o2abo.wam
28th July 2021 18:30:24 1 11,500,000 DRUM, STEEL, STEEL, STOOL ijar.wam
28th July 2021 18:29:41 1 760,000 AIR, EARTH, STORM, WATER mbwr.wam
28th July 2021 18:15:26 1 130,000 AIR, DUST, ENERGY, SEA y2jbc.wam
28th July 2021 17:15:22 2 70,000 AIR, EARTH, FIRE, HEAT ew3ri.wam
28th July 2021 16:27:21 3 70,000 AIR, EARTH, EARTH, GARBAGE qgzdw.wam
28th July 2021 16:21:27 1 7,420,000 SEED, STRING, SUN, WALL tomtomtomtom
28th July 2021 16:19:52 1 1,090,000 BACTERI, EARTH, VULCANO, WATER smcbm.wam
28th July 2021 15:58:51 1 250,000 ATMSPHE, DUST, PRESS, PRESS uw2be.wam
28th July 2021 15:58:27 1 250,000 ATMSPHE, DUST, DUST, PRESS uw2be.wam
28th July 2021 15:58:01 1 310,000 ATMSPHE, DUST, PRESS, STONE uw2be.wam
28th July 2021 15:56:57 1 5,470,000 HILL, RAIN, SEED, WIRE bhwqy.wam
28th July 2021 15:48:01 1 310,000 ATMSPHE, PRESS, PRESS, STONE uw2be.wam
28th July 2021 15:41:30 79 40,000 AIR, EARTH, FIRE, FIRE xaauc.wam
28th July 2021 15:27:39 1 2,500,000 CLAY, HEAT, MUD, SODA doranimosez1
28th July 2021 14:26:05 36 70,000 ENERGY, FIRE, FIRE, FIRE 5w.be.wam
28th July 2021 13:24:56 76 70,000 AIR, EARTH, FIRE, GARBAGE ffve4.wam
28th July 2021 13:24:20 57 40,000 EARTH, FIRE, FIRE, FIRE eq4bc.wam
28th July 2021 12:57:21 32 40,000 FIRE, WATER, WATER, WATER i1hbi.wam
28th July 2021 11:06:54 1 8,620,000 CLAY, ELECTRC, LIMSTON, SODA 1puqy.wam
28th July 2021 10:48:57 3 160,000 GARBAGE, HEAT, PRESS, SEA 4rwau.wam
28th July 2021 10:48:08 1 70,000 EARTH, EARTH, ENERGY, FIRE cvctk.wam
28th July 2021 10:44:36 3 100,000 AIR, GARBAGE, GARBAGE, WATER ffve4.wam
28th July 2021 10:36:47 1 8,110,000 RIVER, SEED, STRING, SUN 4vibe.wam
28th July 2021 10:24:16 1 7,000,000 SUN, TREE, WIRE, WIRE itchylampost
28th July 2021 09:21:01 1 18,280,000 BOOK, CALCLTR, PAPER, PENCIL 1puqy.wam
28th July 2021 09:16:58 1 1,480,000 EARTH, RAIN, SUN, WHEAT wevbe.wam
28th July 2021 09:08:15 1 9,880,000 SEED, STRING, SUN, WIRE psueg.wam
28th July 2021 08:51:53 1 6,070,000 ENERGY, PLANT, STRING, SUN psueg.wam
28th July 2021 08:48:36 1 6,640,000 PLANT, STRING, SUN, SUN psueg.wam
28th July 2021 08:39:58 1 6,070,000 MUD, PLANT, STRING, SUN psueg.wam
28th July 2021 08:32:49 1 8,470,000 CANABIS, SEED, STRING, SUN osiqw.wam
28th July 2021 08:32:34 1 6,010,000 CANABIS, SEED, SUN, WIRE osiqw.wam
28th July 2021 08:03:32 1 7,690,000 SEED, STRING, SUN, SUN psueg.wam
28th July 2021 06:36:44 49 40,000 AIR, EARTH, EARTH, FIRE 5rxuo.wam
28th July 2021 06:30:33 1 5,830,000 SEED, SEED, SUN, WIRE psueg.wam
28th July 2021 05:53:33 1 8,290,000 SEED, SEED, STRING, SUN psueg.wam
28th July 2021 05:42:12 1 7,120,000 MUD, SEED, STRING, SUN psueg.wam
28th July 2021 05:22:18 1 31,420,000 BUILDNG, BUILDNG, MUSIC, TEQUILA psueg.wam
28th July 2021 04:47:40 1 11,470,000 ALCOHOL, GRAPE, GRAPE, TIME otydy.wam
28th July 2021 04:45:08 1 8,380,000 ALCOHOL, ALCOHOL, GRAPE, TIME otydy.wam
28th July 2021 04:37:48 1 15,370,000 MUSIC, SOUND, SOUND, STEEL otydy.wam
28th July 2021 04:07:00 1 34,240,000 ALCOHOL, BUILDNG, MUSIC, MUSIC psueg.wam
28th July 2021 03:56:40 1 5,440,000 CANABIS, RAIN, SEED, WIRE g2cbe.wam
28th July 2021 03:40:04 1 5,410,000 CANABIS, SEED, WATER, WIRE g2cbe.wam
28th July 2021 03:37:27 1 4,180,000 ELECTRC, ELECTRC, METAL, METAL 3mirk.wam
28th July 2021 03:37:19 1 1,420,000 LAVA, LAVA, METAL, METAL u2dbc.wam
28th July 2021 02:55:41 1 7,120,000 ENERGY, SEED, STRING, SUN noqaw.wam
28th July 2021 02:45:09 1 1,240,000 EARTH, HEAT, PLANT, RIVER eomqw.wam
28th July 2021 02:20:15 1 1,870,000 AIR, MUD, SEED, SUN eomqw.wam
28th July 2021 02:19:34 1 2,080,000 AIR, SEED, SUN, SWAMP eomqw.wam
28th July 2021 02:15:37 1 1,990,000 AIR, FLOOD, SEED, SUN eomqw.wam
28th July 2021 02:14:23 1 2,860,000 AIR, RIVER, SEED, SUN eomqw.wam
28th July 2021 01:15:29 1 580,000 AIR, LAVA, LAVA, VULCANO 22mr2.wam
28th July 2021 01:12:05 1 730,000 AIR, GEYSER, LAVA, VULCANO 22mr2.wam
27th July 2021 23:54:39 1 21,610,000 ALCOHOL, ATMSPHE, BUILDNG, MUSIC psueg.wam
27th July 2021 23:44:24 1 23,260,000 ALCOHOL, BUILDNG, MUSIC, SODA psueg.wam
27th July 2021 23:18:57 1 100,000 AIR, EARTH, RAIN, STEAM sanbw.wam
27th July 2021 21:54:28 1 5,050,000 HILL, SEED, SEED, SEED .2frc.wam
27th July 2021 21:37:49 1 5,440,000 EARTH, PLANT, STRING, WATER ip43m.wam
27th July 2021 20:44:49 1 5,020,000 CANABIS, SEED, SEED, SEED hpirm.wam
27th July 2021 20:35:20 55 70,000 AIR, EARTH, GARBAGE, WATER 5n1ay.wam
27th July 2021 19:26:26 1 1,240,000 EARTH, EARTH, SEED, WATER ip43m.wam
27th July 2021 18:51:15 1 3,070,000 DESERT, EARTH, PRESS, SAND o25bk.wam
27th July 2021 18:22:22 1 39,580,000 LIBRARY, LIFE, TIME, TIME t5qb2.wam
27th July 2021 16:30:58 32 40,000 EARTH, EARTH, EARTH, WATER hctee.wam
27th July 2021 16:00:59 1 5,980,000 EARTH, RAIN, SEED, TIME amauw.wam
27th July 2021 15:07:49 3 100,000 EARTH, FIRE, GARBAGE, RAIN wxruo.wam
27th July 2021 14:20:26 1 2,590,000 BOILER, HEAT, SODA, WATER q.uqy.wam
27th July 2021 13:52:41 5 160,000 ENERGY, MUD, MUD, PRESS u2dbc.wam
27th July 2021 13:42:58 1 940,000 LAVA, MNTAIN, WIND, WIND s4leo.wam
27th July 2021 13:41:51 6 100,000 AIR, ENERGY, PRESS, WATER s4leo.wam
27th July 2021 13:33:25 1 850,000 LAVA, LAVA, MNTAIN, WIND xv.bg.wam
27th July 2021 13:29:59 1 730,000 AIR, LAVA, LAVA, MNTAIN n.2rg.wam
27th July 2021 11:27:52 1 760,000 HEAT, MNTAIN, MUD, PRESS s.xr4.wam
27th July 2021 11:06:36 1 3,640,000 PRESS, PRESS, SODA, SODA pdss2.wam
27th July 2021 10:37:00 1 30,700,000 LIBRARY, LIFE, LIFE, LIFE daveeeeeelee
27th July 2021 10:25:35 1 24,100,000 ALARM, PAINTNG, PAPER, PENCIL e.lbi.wam
27th July 2021 10:25:14 1 3,820,000 CLAY, ELECTRC, ELECTRC, GRPHITE qgiuq.wam
27th July 2021 10:17:36 1 35,140,000 LIBRARY, LIFE, LIFE, TIME t5qb2.wam
27th July 2021 09:43:48 1 22,900,000 ALCOHOL, BUILDNG, ELECTRC, MUSIC hgfqq.wam
27th July 2021 09:25:14 1 1,810,000 EARTH, ELECTRC, GRPHITE, HEAT o2abo.wam
27th July 2021 09:21:07 1 30,010,000 ALCOHOL, BUILDNG, BUILDNG, MUSIC psueg.wam
27th July 2021 08:27:19 1 100,000 EARTH, EARTH, GARBAGE, STEAM 5nab.wam
27th July 2021 07:52:44 1 42,580,000 BUILDNG, BUILDNG, MUSIC, MUSIC p4lqm.wam
While I try my best to keep the list as accurate as possible it is possible that it misses a recipe. Indexing of this list started on the 15th July 2021. Last Update: 30th July 2021 04:40:00 UTC
Powered by rplanet.dev / Developed by wehmoen#0001